TYPHON7 LOXZ-LOXZ

Flight info

Callsign TYPHON7
Flight time N/A
Altitude 8000
Route DCT XZ
Aircraft EUFI/M-X/0033

Departure

Time 2026-05-05 20:42
Airport Hinterstoisser Air Base (LOXZ)

Arrival

Time N/A
Airport Hinterstoisser Air Base (LOXZ)
Time Latitude Longitude Altitude Speed Heading
2026-05-05 20:37 47.20413 14.75757 2205 ft 0 kts 261°
2026-05-05 20:41 47.20394 14.75583 2209 ft 49 kts 261°
2026-05-05 20:42 47.20295 14.74782 2232 ft 112 kts 261°
2026-05-05 20:42 47.20170 14.73252 2602 ft 167 kts 262°
2026-05-05 20:42 47.20011 14.71113 3680 ft 294 kts 261°
2026-05-05 20:42 47.19663 14.67139 5144 ft 489 kts 262°
2026-05-05 20:43 47.19186 14.61908 7013 ft 517 kts 262°
2026-05-05 20:43 47.18689 14.56469 7995 ft 555 kts 262°
2026-05-05 20:43 47.18184 14.50912 7944 ft 554 kts 262°
2026-05-05 20:43 47.17666 14.45279 7918 ft 556 kts 262°
2026-05-05 20:44 47.17150 14.39694 8977 ft 554 kts 262°
2026-05-05 20:44 47.16614 14.33988 10890 ft 570 kts 262°
2026-05-05 20:44 47.16062 14.28125 12013 ft 589 kts 262°
2026-05-05 20:44 47.15504 14.22183 11989 ft 584 kts 262°
2026-05-05 20:45 47.14402 14.10325 11933 ft 582 kts 262°
2026-05-05 20:45 47.13857 14.04421 11915 ft 581 kts 262°
2026-05-05 20:45 47.13312 13.98517 11916 ft 584 kts 262°
2026-05-05 20:46 47.12774 13.92696 11922 ft 582 kts 262°
2026-05-05 20:46 47.12224 13.86794 11929 ft 583 kts 262°
2026-05-05 20:46 47.11751 13.80894 11865 ft 583 kts 270°
2026-05-05 20:46 47.12587 13.75111 11525 ft 582 kts 295°
2026-05-05 20:47 47.15042 13.70450 11378 ft 583 kts 319°
2026-05-05 20:47 47.18303 13.66858 11599 ft 588 kts 322°
2026-05-05 20:47 47.21597 13.63258 11780 ft 590 kts 322°
2026-05-05 20:47 47.24898 13.59638 11841 ft 592 kts 322°
2026-05-05 20:48 47.28204 13.56003 11871 ft 592 kts 322°
2026-05-05 20:48 47.31555 13.52464 11851 ft 595 kts 328°
2026-05-05 20:48 47.35356 13.50078 11731 ft 595 kts 344°
2026-05-05 20:48 47.39461 13.49279 11686 ft 598 kts 359°
2026-05-05 20:49 47.43561 13.49538 11764 ft 599 kts
2026-05-05 20:49 47.47794 13.49832 11838 ft 601 kts
2026-05-05 20:49 47.51925 13.50121 11865 ft 603 kts
2026-05-05 20:49 47.56115 13.50413 11854 ft 601 kts
2026-05-05 20:50 47.60304 13.50707 11850 ft 602 kts
2026-05-05 20:50 47.64491 13.51003 11877 ft 603 kts
2026-05-05 20:50 47.68700 13.51387 11812 ft 608 kts
2026-05-05 20:50 47.72585 13.53768 11384 ft 605 kts 35°
2026-05-05 20:51 47.76008 13.57402 11630 ft 609 kts 35°
2026-05-05 20:51 47.79411 13.61026 11749 ft 607 kts 35°
2026-05-05 20:51 47.82834 13.64702 11524 ft 602 kts 35°
2026-05-05 20:51 47.86009 13.68121 9834 ft 531 kts 35°
2026-05-05 20:52 47.88857 13.71204 8143 ft 482 kts 35°
2026-05-05 20:52 47.91465 13.74041 6635 ft 449 kts 34°
2026-05-05 20:52 47.93900 13.76707 5877 ft 412 kts 34°
2026-05-05 20:52 47.96086 13.79126 5397 ft 379 kts 34°
2026-05-05 20:53 47.98136 13.81413 4914 ft 352 kts 34°
2026-05-05 20:53 47.99997 13.83514 4854 ft 319 kts 34°
2026-05-05 20:53 48.01673 13.85428 4846 ft 286 kts 34°
2026-05-05 20:53 48.03215 13.87206 4841 ft 286 kts 34°
2026-05-05 20:54 48.04772 13.88997 4846 ft 284 kts 34°
2026-05-05 20:54 48.06262 13.90911 4791 ft 288 kts 49°
2026-05-05 20:54 48.07220 13.93539 4350 ft 288 kts 64°
2026-05-05 20:54 48.08030 13.96311 3508 ft 294 kts 63°
2026-05-05 20:55 48.08842 13.99068 3023 ft 282 kts 63°
2026-05-05 20:55 48.09635 14.01779 2903 ft 287 kts 63°
2026-05-05 20:55 48.10428 14.04491 2854 ft 284 kts 63°
2026-05-05 20:55 48.11215 14.07187 2820 ft 281 kts 64°
2026-05-05 20:56 48.12000 14.09886 2824 ft 282 kts 64°
2026-05-05 20:56 48.12777 14.12584 2824 ft 280 kts 64°
2026-05-05 20:56 48.13551 14.15278 2817 ft 283 kts 64°
2026-05-05 20:56 48.14330 14.17986 2804 ft 285 kts 64°
2026-05-05 20:57 48.15089 14.20662 2874 ft 283 kts 64°
2026-05-05 20:57 48.15855 14.23383 2903 ft 279 kts 65°
2026-05-05 20:57 48.16593 14.26019 2934 ft 279 kts 65°
2026-05-05 20:57 48.17345 14.28713 2970 ft 280 kts 65°
2026-05-05 20:58 48.18085 14.31373 2953 ft 276 kts 65°
2026-05-05 20:58 48.18786 14.33892 2963 ft 246 kts 64°
2026-05-05 20:58 48.19411 14.36146 2981 ft 232 kts 64°
2026-05-05 20:58 48.20152 14.38279 2991 ft 228 kts 47°
2026-05-05 20:59 48.21323 14.39839 2962 ft 223 kts 23°
2026-05-05 20:59 48.22750 14.40489 2969 ft 215 kts 356°
2026-05-05 20:59 48.24149 14.40099 2974 ft 204 kts 328°
2026-05-05 20:59 48.25147 14.38767 3050 ft 193 kts 291°
2026-05-05 21:00 48.25212 14.36792 3072 ft 194 kts 249°
2026-05-05 21:00 48.24661 14.34908 2791 ft 198 kts 249°
2026-05-05 21:00 48.24113 14.33044 2539 ft 193 kts 249°
2026-05-05 21:00 48.23750 14.31131 2199 ft 189 kts 265°
2026-05-05 21:01 48.23676 14.29047 1830 ft 204 kts 267°
2026-05-05 21:01 48.23617 14.27172 1459 ft 166 kts 267°
2026-05-05 21:01 48.23563 14.25436 1262 ft 160 kts 266°
2026-05-05 21:01 48.23497 14.23691 1148 ft 179 kts 265°
2026-05-05 21:02 48.23399 14.21964 1096 ft 176 kts 264°
2026-05-05 21:02 48.23341 14.19988 1065 ft 186 kts 269°
2026-05-05 21:02 48.23349 14.17974 1337 ft 226 kts 271°
2026-05-05 21:02 48.23309 14.15209 2123 ft 299 kts 264°
2026-05-05 21:03 48.22432 14.12390 3369 ft 302 kts 230°
2026-05-05 21:03 48.20573 14.11397 4699 ft 298 kts 178°
2026-05-05 21:03 48.19233 14.13207 4777 ft 261 kts 97°
2026-05-05 21:03 48.19384 14.15851 4242 ft 246 kts 75°
2026-05-05 21:04 48.19711 14.18284 3942 ft 235 kts 75°
2026-05-05 21:04 48.20113 14.20616 3598 ft 233 kts 70°
2026-05-05 21:04 48.20542 14.22969 3244 ft 235 kts 75°
2026-05-05 21:04 48.21077 14.25143 2980 ft 212 kts 47°
2026-05-05 21:05 48.22284 14.26262 2574 ft 202 kts
2026-05-05 21:05 48.23551 14.25839 2078 ft 181 kts 320°
2026-05-05 21:05 48.24112 14.24327 1699 ft 163 kts 263°
2026-05-05 21:05 48.23638 14.22684 1348 ft 196 kts 248°
2026-05-05 21:06 48.23674 14.20813 1387 ft 180 kts 308°
2026-05-05 21:06 48.24926 14.19313 1952 ft 265 kts 357°
2026-05-05 21:06 48.26542 14.20713 2523 ft 289 kts 52°
2026-05-05 21:06 48.27237 14.23631 2582 ft 304 kts 76°
2026-05-05 21:07 48.27588 14.26680 2558 ft 289 kts 80°
2026-05-05 21:07 48.27733 14.29613 2592 ft 275 kts 89°
2026-05-05 21:07 48.27374 14.32224 2436 ft 240 kts 123°
2026-05-05 21:07 48.26143 14.33668 2108 ft 221 kts 178°
2026-05-05 21:08 48.24814 14.33129 2205 ft 194 kts 229°
2026-05-05 21:08 48.24130 14.31464 2068 ft 183 kts 252°
2026-05-05 21:08 48.23780 14.29653 2000 ft 183 kts 260°
2026-05-05 21:08 48.23646 14.27701 1868 ft 193 kts 269°
2026-05-05 21:09 48.23604 14.25694 1657 ft 189 kts 265°
2026-05-05 21:09 48.23516 14.23826 1408 ft 173 kts 267°
2026-05-05 21:09 48.23467 14.21993 1180 ft 178 kts 269°
2026-05-05 21:09 48.23394 14.20208 989 ft 154 kts 264°
2026-05-05 21:10 48.23333 14.18966 973 ft 56 kts 266°
2026-05-05 21:10 48.23401 14.18825 974 ft 0 kts 351°